Regional Weather Roundup
Issued by NWS Charleston, SC

Current Version | Previous Version | Graphics & Text | Print | Product List | Glossary On
Versions: 1 2 3 4 5 6 7 8 9 10 11 12 13 14 15 16 17 18 19 20 21 22 23 24 25 26 27 28 29 30 31 32 33 34 35 36 37 38 39 40 41 42 43 44 45 46 47 48 49 50
000
ASUS42 KCHS 230312
RWRCHS

REGIONAL WEATHER ROUNDUP
NATIONAL WEATHER SERVICE CHARLESTON SC
1100 PM EDT MON MAY 22 2017

NOTE: "FAIR" INDICATES FEW OR NO CLOUDS BELOW 12,000 FEET WITH NO
SIGNIFICANT WEATHER AND/OR OBSTRUCTIONS TO VISIBILITY.

NOT ALL STATIONS ARE QUALITY CONTROLLED. USE DATA WITH CAUTION...
ESPECIALLY DEWPOINT OBSERVATIONS.

SCZ027-030-031-034>040-042>050-230400-
...SOUTHEAST SOUTH CAROLINA...

CITY           SKY/WX    TMP DP  RH WIND       PRES   REMARKS
N CHARLESTON   CLOUDY    75  73  93 SE6       29.97S
WATERFRONT PRK   N/A     77  74  91 VRB2      29.96R
JOHNS ISLAND   RAIN      77  73  88 CALM      29.98R
PINOPOLIS        N/A     70  70 100 E6        29.89F
MONCKS CORNER  CLOUDY    68  66  94 CALM      29.98S
SUMMERVILLE    FAIR      70  70 100 CALM      29.99R
BEAUFORT MCAS  TSTM      73  73 100 S14       29.98R FOG
BEAUFORT ARPT  TSTM      70  68  94 S12       29.98R VSB 3/4
HILTON HEAD IS CLOUDY    77  73  88 S8G15     29.98R THUNDER
WALTERBORO     CLOUDY    72  72 100 CALM      29.97F
ALLENDALE      RAIN      72  70  94 CALM      29.94F

...SOUTHERN MIDLANDS AND PEE DEE...

CITY           SKY/WX    TMP DP  RH WIND       PRES   REMARKS
GEORGETOWN     DRIZZLE   70  68  94 CALM      29.96
KINGSTREE      CLOUDY    68  66  94 SE9       29.98S
ORANGEBURG     CLOUDY    70  69  97 SE6       29.96S
BARNWELL       MOCLDY    72  72 100 SE7       29.95F
AIKEN          FAIR      68  66  94 CALM      29.98F
MANNING        MOCLDY    68  68 100 CALM      29.97S
COLUMBIA       LGT RAIN  71  68  90 CALM      29.94F
SUMTER         CLOUDY    69  67  95 E3        29.94S
FLORENCE       CLOUDY    69  69 100 E5        29.98S
MYRTLE BEACH   LGT RAIN  69  68  96 NE3       30.02R FOG
N MYRTLE BEACH LGT RAIN  69  67  93 E5        30.00R

$$

GAZ063-065-086>088-099>101-113>116-118-119-134>141-150-230400-
...SOUTHEAST GEORGIA...

CITY           SKY/WX    TMP DP  RH WIND       PRES   REMARKS
SAVANNAH ARPT  TSTM      73  72  96 E5        29.96S
HUNTER AAF     CLOUDY    75  75 100 CALM      29.94R
FORT STEWART   CLOUDY    73  71  92 SE5       29.93F
STATESBORO     RAIN      71  71 100 E5        29.95F
SYLVANIA       RAIN      71  71 100 SE3       29.97R
CLAXTON        LGT RAIN N/A N/A N/A N6        29.95F

...CSRA...CENTRAL AND FAR SOUTHEAST GEORGIA...

CITY           SKY/WX    TMP DP  RH WIND       PRES   REMARKS
THOMSON        PTCLDY    70  69  98 CALM      30.00R
AUGUSTA-BUSH   CLOUDY    72  69  90 CALM      29.94F
AUGUSTA-DANIEL CLOUDY    71  67  87 SE5       29.95F
SWAINSBORO     FAIR      72  72 100 SE5       29.96S
VIDALIA        HVY RAIN  72  70  94 SE5       29.94R
EASTMAN        CLOUDY    72  72 100 CALM      29.98R
HAZLEHURST     FAIR      73  73 100 CALM      29.95S
ALMA           CLOUDY    78  69  73 CALM      29.95R
WAYCROSS       CLOUDY    78  77  97 S5        29.96S
JESUP          FAIR      73  68  83 CALM      29.96R
BAXLEY         CLOUDY    75  75 100 N7        29.95S
BRUNSWICK      CLOUDY    73  73 100 S7        29.97S
SAINT SIMONS   CLOUDY    76  71  85 SW7       29.96S

$$

SCZ027-028-034-036>038-045-046-048>050-GAZ119-141-230400-
...LAKE AND SUPPLEMENTAL COASTAL OBSERVATIONS...

STATION/POSITION TIME  TEMP    WIND        PRES    WAVE   SWELL
                       AIR SEA DIR/SP/G            HT/PER HT/PER/DIR
                 (UTC) (F)     (DEG/KT/KT) (MB)    (FT/S) (FT/S/D)
WINYAH BAY       0145   71      60/  3     1016.0
LAKE MURRAY      0220   71     150/  4/  6 1013.5F
ACE BASIN NERRS  NOT AVBL
FORT PULASKI     0236   77 80  210/  8/ 12 1014.9R
SAPELO ISLAND    0200   75     190/  6     1014.0

$$

ANZ835-935-AMZ111-154-330-350-352-354-370-450-454-472-230400-
...C-MAN AND BUOY OBSERVATIONS...

STATION/POSITION TIME  TEMP    WIND        PRES    WAVE   SWELL
                       AIR SEA DIR/SP/G            HT/PER HT/PER/DIR
                 (UTC) (F)     (DEG/KT/KT) (MB)    (FT/S) (FT/S/D)
BUOY 41004       0250   78 78  180/ 10/ 12 1015.0R   3/ 8   2/120/ 8
BUOY 41008       0250   77 78  180/ 19/ 23 1014.3R   4/ 5
FOLLY BEACH CMAN 0200   78     190/  8/  9 1015.5F
CAPERS NEARSHORE 0208   79 77  190/  8/ 10 1014.9F
FRIPP NEARSHORE  0208   78 79  190/  8/ 12 1014.5S


STATION/POSITION TIME  TEMP    WIND        PRES    WAVE   SWELL
                       AIR SEA DIR/SP/G            HT/PER HT/PER/DIR
                 (UTC) (F)     (DEG/KT/KT) (MB)    (FT/S) (FT/S/D)
5E ST. MARYS GA  0230      79                N/A     4/ 5
FRYING PAN BUOY  0250   78 77  190/ 14/ 16 1015.4S   3/ 9   2/ 90/ 9
BUOY 41025       0250   71 78  290/ 17/ 21 1016.4F   4/ 9   2/ 80/ 9
CAPE LOOKOUT NC  0200   76     210/  8/ 10 1015.5S
BUOY 41002       0250   76 77  190/ 12/ 16 1018.6S   3/ 8   2/ 30/ 8
BUOY 41010       0250   78 79  170/ 12/ 16 1017.5R   2/ 9   2/ 30/ 9
ST AUGUSTINE FL  0300   76 80  180/ 13/ 15 1016.0F


$$



USA.gov is the U.S. government's official web portal to all federal, state and local government web resources and services.